[[{"header":{"parameterUnit":"m.s-1","parameterCategory":1,"la1":30.2991,"la2":30.254,"lo1":-89.0895,"lo2":-89.0444,"dy":0.0017,"dx":0.0017,"nx":28,"ny":28,"refTime":"2024-10-03T09:00:00:Z","depth":0,"parameterNumber":2,"parameterNumberName":"U-component_of_WINDS"},"data":[0,0,0,0,0,0,0,0,0,0,0,0,0,0,0,0,0,0,0,0,0,0,0,0,0,0,0,0,0,0,0,0,0,0,0,0,0,0,0,0,0,0,0,0,0,0,0,0,0,0,0,0,0,0,0,0,0,0,-4.6777,-4.6777,0,-4.6827,-4.6827,-4.6828,-4.6723,-4.6719,-4.6716,-4.6713,-4.6763,-4.6767,-4.6771,0,0,0,0,0,0,0,0,0,0,0,0,0,-4.6589,-4.6593,-4.6777,-4.6777,-4.6778,-4.6827,-4.6827,-4.6828,-4.6723,-4.6719,-4.6715,-4.6711,-4.6761,-4.6766,-4.6772,0,0,0,0,0,0,0,0,0,0,0,0,0,-4.6658,-4.6594,-4.6777,-4.6732,-4.6728,-4.6827,-4.6827,-4.6828,-4.6724,-4.6719,-4.6714,-4.6709,-4.6759,-4.6766,-4.6773,-4.6917,0,0,-4.6793,-4.6796,0,0,0,0,0,0,0,0,-4.6654,-4.6665,-4.6738,-4.6735,-4.6731,-4.6763,-4.6779,-4.6858,-4.6725,-4.6726,-4.6713,-4.6707,-4.6767,-4.6773,-4.6793,-4.6919,-4.6921,-4.6794,-4.6798,-4.6801,-4.6803,0,0,0,0,0,0,0,-4.6649,-4.6662,-4.6796,-4.6739,-4.6735,-4.6708,-4.6713,-4.6794,-4.6774,-4.6725,-4.6718,-4.6725,-4.6764,-4.6787,-4.6794,-4.6922,-4.6794,-4.68,-4.6804,-4.6806,-4.7168,-4.7173,0,0,0,0,0,0,-4.6651,-4.6659,-4.6795,-4.6798,-4.6679,-4.6716,-4.6721,-4.6758,-4.6773,-4.677,-4.6729,-4.672,-4.6778,-4.6786,-4.6795,-4.6963,-4.6801,-4.6807,-4.6811,-4.7162,-4.7169,-4.7175,0,0,0,0,0,0,-4.6647,-4.6664,-4.6793,-4.6726,-4.6741,-4.6725,-4.6768,-4.6762,-4.6784,-4.6776,-4.6772,-4.6757,-4.6774,-4.6785,-4.6887,-4.6964,-4.681,-4.6816,-4.7156,-4.7164,-4.7172,-4.7302,0,0,0,0,0,0,-4.6642,-4.6663,-4.6718,-4.6728,-4.6745,-4.6885,-4.6772,-4.6766,-4.6797,-4.6785,-4.6801,-4.6798,-4.6771,-4.6878,-4.6894,-4.697,-4.6822,-4.7149,-4.7159,-4.7169,-4.7291,-4.7314,-4.7334,0,0,0,0,0,-4.6636,-4.6752,-4.6721,-4.6738,-4.6813,-4.6889,-4.6899,-4.6865,-4.6803,-4.6858,-4.6853,-4.6798,-4.6954,-4.6889,-4.6906,-4.6986,-4.7143,-4.7156,-4.7168,-4.7282,-4.731,-4.7333,0,0,0,0,0,0,-4.675,-4.6753,-4.6718,-4.6842,-4.6867,-4.6871,-4.6939,-4.6896,-4.6938,-4.6925,-4.6882,-4.6886,-4.6996,-4.7001,-4.693,-4.7126,-4.7038,-4.7054,-4.7118,-4.7145,-4.7166,-4.7161,-4.6827,0,0,0,0,0,-4.6791,-4.6853,-4.6851,-4.6961,-4.6975,-4.6956,-4.6988,-4.696,-4.6983,-4.6993,-4.6995,-4.7019,-4.7073,-4.7109,-4.7159,-4.7293,-4.7294,-4.7356,-4.7377,-4.7395,-4.7409,-4.7479,-4.7506,-4.7216,-4.7216,-4.7215,0,0,-4.6873,-4.6882,-4.6924,-4.6984,-4.7,-4.7064,-4.6965,-4.7037,-4.7085,-4.7003,-4.7099,-4.7102,-4.7126,-4.7244,-4.7296,-4.7252,-4.749,-4.7411,-4.7425,-4.7429,-4.7494,-4.7522,-4.7546,-4.7224,-4.7223,-4.7221,0,0,-4.7056,-4.707,-4.7162,-4.718,-4.7205,-4.7192,-4.7214,-4.7226,-4.7225,-4.7321,-4.7261,-4.7317,-4.7411,-4.7431,-4.7453,-4.7645,-4.7596,-4.7663,-4.7773,-4.7842,-4.7865,-4.7885,-4.7952,-4.7976,-4.7677,-4.7678,-4.7678,0,-4.7155,-4.7251,-4.7215,-4.7292,-4.732,-4.725,-4.7343,-4.7362,-4.7402,-4.7423,-4.7373,-4.749,-4.7501,-4.7622,-4.7669,-4.769,-4.7714,-4.7659,-4.7865,-4.7884,-4.7902,-4.7966,-4.7991,-4.7686,-4.7685,-4.7684,-4.7683,0,-4.7371,-4.7438,-4.7509,-4.755,-4.7586,-4.7671,-4.7647,-4.7688,-4.7658,-4.765,-4.7748,-4.776,-4.781,-4.7838,-4.7809,-4.7955,-4.7926,-4.7872,-4.7782,-4.7938,-4.7997,-4.8021,-4.7697,-4.7694,-4.7692,-4.769,0,0,-4.7625,-4.7646,-4.7673,-4.769,-4.7713,-4.7764,-4.7846,-4.7896,-4.7931,-4.7962,-4.8028,-4.811,-4.806,-4.8085,-4.8059,-4.8119,-4.8269,-4.8057,-4.8057,-4.8094,-4.8429,-4.8468,-4.8497,-4.8238,-4.8242,-4.8246,-4.8426,0,-4.7805,-4.7945,-4.7915,-4.8053,-4.8114,-4.805,-4.812,-4.8142,-4.8137,-4.8188,-4.8182,-4.8241,-4.8171,-4.8186,-4.8243,-4.8239,-4.8335,-4.8226,-4.8297,-4.83,-4.8291,-4.8527,-4.8569,-4.8739,-4.8449,-4.8453,-4.8455,0,-4.8033,-4.8072,-4.8216,-4.8229,-4.8253,-4.8318,-4.8361,-4.8411,-4.8434,-4.8426,-4.8456,-4.8418,-4.8498,-4.841,-4.8519,-4.8445,-4.8473,-4.8476,-4.8481,-4.8484,-4.8385,-4.8535,-4.8792,-4.8817,-4.8492,-4.8489,-4.8486,0,-4.8201,-4.8291,-4.8388,-4.8405,-4.8424,-4.847,-4.848,-4.8498,-4.853,-4.8568,-4.8588,-4.8635,-4.8661,-4.8698,-4.8673,-4.8611,-4.8786,-4.8696,-4.8781,-4.8782,-4.8818,-4.8816,-4.9081,-4.8841,-4.884,-4.884,-4.8839,0,-4.8404,-4.8493,-4.8464,-4.8523,-4.8622,-4.8588,-4.8686,-4.8688,-4.8706,-4.8764,-4.8712,-4.8768,-4.8733,-4.8786,-4.8768,-4.8861,-4.8873,-4.8868,-4.8861,-4.8871,-4.8872,-4.8887,-4.8874,-4.8847,-4.8845,-4.8844,-4.8843,0,-4.8608,-4.8592,-4.8693,-4.8703,-4.8707,-4.8779,-4.8787,-4.8842,-4.8834,-4.8909,-4.8925,-4.8912,-4.8971,-4.8951,-4.9016,-4.9003,-4.912,-4.91,-4.9112,-4.9106,-4.9191,-4.9183,-4.9474,-4.951,-4.9249,-4.9251,-4.9253,0,-4.8737,-4.8804,-4.8822,-4.8857,-4.8871,-4.8929,-4.8961,-4.8931,-4.8967,-4.8999,-4.905,-4.9106,-4.9148,-4.9247,-4.9243,-4.9291,-4.927,-4.9369,-4.9277,-4.9285,-4.9269,-4.9265,-4.9271,-4.9386,-4.939,-4.9392,-4.9394,0,-4.8967,-4.8956,-4.9004,-4.9051,-4.9091,-4.9126,-4.9156,-4.9189,-4.916,-4.9203,-4.9263,-4.9297,-4.9362,-4.9418,-4.9462,-4.9471,-4.9428,-4.9424,-4.9445,-4.9455,-4.9458,-4.9455,-4.916,-4.9416,-4.9414,-4.9412,-4.9411,-4.941,-4.9135,-4.9192,-4.9213,-4.9269,-4.9289,-4.9319,-4.9371,-4.937,-4.942,-4.9471,-4.9451,-4.952,-4.9542,-4.9597,-4.9613,-4.9667,-4.9629,-4.9661,-4.9668,-4.9676,-4.9686,-4.9452,-4.9675,-4.9674,-4.9674,-4.9673,-4.9673,0,-4.9361,-4.9372,-4.9424,-4.9468,-4.9512,-4.9469,-4.9501,-4.954,-4.9602,-4.9627,-4.967,-4.974,-4.9793,-4.9794,-4.9844,-4.9887,-4.9868,-4.9901,-4.9896,-4.9899,-4.9718,-4.9694,-4.9915,-4.9915,-4.9915,-4.9915,-4.9915,-4.9915,-4.9483,-4.9577,-4.9568,-4.9671,-4.9681,-4.9749,-4.9771,-4.9798,-4.9817,-4.9897,-4.9941,-4.9942,-4.9957,-5.0008,-5.0055,-5.0054,-5.0074,-5.0114,-5.0105,-4.9936,-4.9912,-4.9889,-4.9865,-5.0119,-5.0119,-5.028,-5.0282,-5.0283]},{"header":{"parameterUnit":"m.s-1","parameterCategory":1,"la1":30.2991,"la2":30.254,"lo1":-89.0895,"lo2":-89.0444,"dy":0.0017,"dx":0.0017,"nx":28,"ny":28,"refTime":"2024-10-03T09:00:00:Z","depth":0,"parameterNumber":3,"parameterNumberName":"V-component_of_WINDS"},"data":[0,0,0,0,0,0,0,0,0,0,0,0,0,0,0,0,0,0,0,0,0,0,0,0,0,0,0,0,0,0,0,0,0,0,0,0,0,0,0,0,0,0,0,0,0,0,0,0,0,0,0,0,0,0,0,0,0,0,2.1578,2.1578,0,2.1629,2.1629,2.163,2.1617,2.1616,2.1615,2.1614,2.1664,2.1666,2.1668,0,0,0,0,0,0,0,0,0,0,0,0,0,2.1468,2.147,2.1578,2.1578,2.1579,2.1629,2.163,2.163,2.1617,2.1616,2.1615,2.1614,2.1663,2.1666,2.1668,0,0,0,0,0,0,0,0,0,0,0,0,0,2.1517,2.147,2.1578,2.1579,2.1579,2.1629,2.163,2.163,2.1618,2.1616,2.1615,2.1613,2.1662,2.1665,2.1669,2.1719,0,0,2.1679,2.168,0,0,0,0,0,0,0,0,2.1514,2.1521,2.1578,2.1579,2.1579,2.1615,2.1609,2.166,2.1618,2.1603,2.1614,2.1613,2.1649,2.1653,2.1666,2.1722,2.1724,2.1679,2.1681,2.1683,2.1684,0,0,0,0,0,0,0,2.1511,2.1518,2.1598,2.1579,2.158,2.1576,2.1582,2.1618,2.1633,2.1604,2.1603,2.161,2.1649,2.1663,2.1667,2.1724,2.1679,2.1682,2.1684,2.1686,2.1826,2.1828,0,0,0,0,0,0,2.1507,2.1516,2.1596,2.1599,2.1542,2.1579,2.1585,2.1605,2.1633,2.1636,2.1611,2.1609,2.1658,2.1663,2.1669,2.1731,2.1683,2.1686,2.1688,2.1825,2.1827,2.1829,0,0,0,0,0,0,2.1504,2.1514,2.1594,2.1557,2.1567,2.1583,2.1605,2.1607,2.1621,2.1638,2.1641,2.1623,2.1657,2.1664,2.1707,2.1732,2.1687,2.169,2.1823,2.1825,2.1828,2.1855,0,0,0,0,0,0,2.1501,2.1513,2.1533,2.1558,2.1569,2.1633,2.1607,2.1609,2.1627,2.1625,2.165,2.1652,2.1656,2.1703,2.1711,2.1736,2.1693,2.182,2.1824,2.1827,2.1852,2.1858,2.1864,0,0,0,0,0,2.1497,2.1537,2.1534,2.1544,2.1594,2.1634,2.164,2.1645,2.1629,2.1649,2.166,2.1651,2.1728,2.1707,2.1716,2.1743,2.1819,2.1823,2.1827,2.1849,2.1857,2.1864,0,0,0,0,0,0,2.1513,2.154,2.1537,2.1586,2.1608,2.1632,2.1657,2.1652,2.1678,2.1675,2.1679,2.1684,2.1729,2.174,2.1716,2.1795,2.1771,2.1777,2.1786,2.1793,2.1799,2.1795,2.1696,0,0,0,0,0,2.1522,2.1553,2.1575,2.1617,2.1628,2.1641,2.1658,2.166,2.1682,2.1691,2.1705,2.1727,2.1756,2.1775,2.1803,2.1854,2.186,2.1877,2.1883,2.1887,2.1892,2.1922,2.193,2.1841,2.1841,2.1841,0,0,2.1541,2.156,2.1579,2.162,2.1637,2.1669,2.1648,2.1682,2.1706,2.1696,2.1738,2.175,2.1774,2.1823,2.1844,2.1833,2.1919,2.1892,2.1896,2.1899,2.1927,2.1935,2.1943,2.1844,2.1844,2.1843,0,0,2.1593,2.161,2.1647,2.1665,2.1692,2.1701,2.171,2.1735,2.1743,2.1786,2.178,2.1808,2.1858,2.1876,2.1892,2.1953,2.1946,2.1962,2.1992,2.2021,2.2028,2.2034,2.2057,2.2065,2.1967,2.1967,2.1967,0,2.1612,2.1661,2.1666,2.1702,2.1721,2.1715,2.1753,2.177,2.1804,2.1817,2.1805,2.1869,2.1884,2.1938,2.1953,2.1965,2.1976,2.1959,2.2027,2.2033,2.2039,2.2061,2.2069,2.1969,2.1968,2.1968,2.1968,0,2.1685,2.1718,2.1745,2.1781,2.1802,2.1839,2.185,2.1871,2.1872,2.1882,2.1927,2.1946,2.1978,2.1991,2.1991,2.2045,2.2037,2.2026,2.2002,2.2049,2.207,2.2078,2.1971,2.1971,2.197,2.197,0,0,2.1745,2.1786,2.1795,2.1812,2.1843,2.1869,2.1905,2.1939,2.1957,2.1982,2.2013,2.2056,2.2047,2.2065,2.2067,2.2092,2.2141,2.2078,2.2078,2.209,2.2203,2.2212,2.2222,2.2137,2.2139,2.214,2.2202,0,2.18,2.1866,2.1873,2.1932,2.1964,2.196,2.1992,2.2015,2.2026,2.2054,2.2065,2.2097,2.2081,2.2092,2.2117,2.213,2.2164,2.2126,2.2166,2.2168,2.2161,2.2233,2.2242,2.2299,2.221,2.2211,2.2212,0,2.1872,2.1901,2.1964,2.1992,2.2006,2.2034,2.2067,2.2094,2.2119,2.2126,2.2147,2.2147,2.2185,2.2161,2.2214,2.2188,2.2205,2.2214,2.2216,2.222,2.2193,2.2239,2.2317,2.2326,2.2225,2.2224,2.2223,0,2.1912,2.1966,2.2011,2.2025,2.2059,2.208,2.2095,2.2119,2.2139,2.2167,2.2181,2.2212,2.2229,2.2254,2.2262,2.2244,2.2315,2.2291,2.2322,2.2322,2.2337,2.2336,2.2419,2.2347,2.2347,2.2347,2.2347,0,2.1973,2.2011,2.203,2.2057,2.2101,2.2109,2.2151,2.2165,2.2187,2.2218,2.2216,2.2244,2.2253,2.2283,2.229,2.2334,2.2341,2.2348,2.2349,2.2348,2.2348,2.2359,2.2356,2.2349,2.2349,2.2348,2.2348,0,2.2024,2.2038,2.2087,2.2116,2.2124,2.2155,2.2179,2.2206,2.2218,2.2256,2.2266,2.2283,2.2319,2.233,2.2372,2.2376,2.2428,2.2425,2.242,2.242,2.245,2.2448,2.2545,2.2559,2.2477,2.2477,2.2478,0,2.2062,2.2092,2.2125,2.2146,2.2162,2.2196,2.2217,2.2227,2.2249,2.2282,2.2305,2.2341,2.2369,2.2426,2.2443,2.2475,2.2474,2.2506,2.2479,2.2478,2.2476,2.2474,2.2478,2.2511,2.2512,2.2512,2.2513,0,2.2128,2.2134,2.2166,2.2201,2.2227,2.2254,2.228,2.2297,2.2311,2.2336,2.2373,2.2396,2.2441,2.2476,2.251,2.2525,2.2522,2.2522,2.2531,2.253,2.2526,2.253,2.2434,2.2519,2.2519,2.2518,2.2518,2.2518,2.2175,2.2202,2.2231,2.2266,2.2288,2.2313,2.234,2.2356,2.2388,2.2426,2.2429,2.247,2.2496,2.2542,2.2559,2.259,2.2581,2.2594,2.2597,2.26,2.2604,2.2521,2.2596,2.2596,2.2596,2.2596,2.2596,0,2.2242,2.2261,2.2294,2.2332,2.236,2.2356,2.2386,2.241,2.2446,2.2471,2.2501,2.2544,2.258,2.26,2.2635,2.2657,2.2656,2.2665,2.2664,2.2668,2.2609,2.2598,2.2665,2.2665,2.2665,2.2665,2.2665,2.2665,2.2281,2.2328,2.2337,2.2395,2.2413,2.2454,2.2471,2.2495,2.2516,2.2565,2.2595,2.2608,2.2632,2.2669,2.2701,2.2706,2.272,2.2731,2.2735,2.2679,2.2672,2.2665,2.2655,2.2733,2.2733,2.2791,2.2792,2.2792]}]]